Regional Weather Roundup
Issued by NWS

Home | Current Version | Previous Version | Text Only | Print | Product List | Glossary Off
Versions: 1 2 3 4 5 6 7 8 9 10 11 12 13 14 15 16 17 18 19 20 21 22 23 24 25 26 27 28 29 30 31 32 33 34 35 36 37 38 39 40 41 42 43 44 45 46 47 48 49 50

000
ASUS43 KDTX 251510
RWRMI
MICHIGAN HOURLY REGIONAL WEATHER ROUNDUP
NATIONAL WEATHER SERVICE DETROIT/PONTIAC MI
1100 AM EDT SAT APR 25 2015

NOTE: "FAIR" INDICATES FEW OR NO CLOUDS BELOW 12,000 FEET WITH NO
SIGNIFICANT WEATHER AND/OR OBSTRUCTION TO VISIBILITY.

MIZ047>049-052>055-059>063-066>070-074>076-081>083-251600-
SOUTHEAST LOWER MICHIGAN

CITY           SKY/WX    TMP DP  RH WIND       PRES   REMARKS
ADRIAN         CLOUDY    43  38  82 E14       29.88F
ALMA           CLOUDY    43  27  53 NE12      29.93F
ANN ARBOR      CLOUDY    45  33  63 E13       29.90F
BAD AXE        MOSUNNY   42  20  41 SE8       29.99S
CARO           PTSUNNY   46  25  44 CALM      29.95F
DETROIT CITY   CLOUDY    42  30  62 E10       29.94F
DETROIT        CLOUDY    47  29  49 E10       29.93F
FLINT          CLOUDY    47  26  44 E7        29.93F
GROSSE ILE     CLOUDY    46  30  53 E8        29.91F
HILLSDALE      CLOUDY    43  41  93 E14       29.85F
HOWELL         CLOUDY    46  32  57 E9        29.90F

CITY           SKY/WX    TMP DP  RH WIND       PRES   REMARKS
JACKSON        CLOUDY    43  37  79 E14       29.87F
LAMBERTVILLE   CLOUDY    45  37  76 E14G20    29.89F
LANSING        CLOUDY    45  35  68 E12       29.90F
LAPEER         FAIR      42  26  51 E6        29.95S
MASON          CLOUDY    45  34  66 E7        29.89F
MONROE         CLOUDY    45  37  76 E9G17     29.90F
MT. CLEMENS    CLOUDY    41  27  55 E10       29.92F
PONTIAC        CLOUDY    43  27  53 E7        29.92F
PORT HOPE        N/A     37  25  61 E8        29.99S WCI  31
PORT HURON     PTSUNNY   43  27  52 NE6       29.97S
TRI CITIES     PTSUNNY   45  24  43 E9        29.96F
TROY           CLOUDY    44  23  42 E5        29.95S
SAGINAW HB     CLOUDY    46  23  39 E8        29.95F
$$
MIZ043>046-050>051-056>058-064>065-071>073-077>080-251600-
SOUTHWEST LOWER MICHIGAN

CITY           SKY/WX    TMP DP  RH WIND       PRES   REMARKS
BATTLE CREEK   CLOUDY    44  38  79 E12       29.86F
BENTON HARBOR  CLOUDY    45  38  76 E15G23    29.81F
BIG RAPIDS     CLOUDY    42  27  55 E10       29.92S
COLDWATER      CLOUDY    43  38  80 E10G18    29.84F
FREMONT        CLOUDY    44  25  47 E10       29.89F
HOLLAND        CLOUDY    45  36  70 E12       29.87F
GRAND RAPIDS   CLOUDY    43  32  65 E13       29.88F
IONIA          CLOUDY    44  33  66 E12       29.89F
KALAMAZOO      CLOUDY    44  38  79 E8        29.86F
LUDINGTON      CLOUDY    45  20  36 E13       29.91F
MARSHALL       CLOUDY    42  38  86 E9        29.86F
MOUNT PLEASANT PTSUNNY   44  26  48 E10       29.93F
MUSKEGON       CLOUDY    44  32  62 E13       29.88F
SOUTH HAVEN    CLOUDY    47  39  73 E9        29.83F
$$
MIZ016>042-251600-
NORTHERN LOWER MICHIGAN

CITY           SKY/WX    TMP DP  RH WIND       PRES   REMARKS
ALPENA         SUNNY     45  19  35 VRB3      30.01S
BEAVER ISLAND  SUNNY     39  26  59 E8        30.01R WCI  33
BELLAIRE       SUNNY     45  17  32 E6        29.97F
CADILLAC       CLOUDY    42  20  40 E13       29.92F
CHARLEVOIX     SUNNY     42  22  45 NE5       30.01F
FRANKFORT      CLOUDY    45  15  29 NE5       29.95S
GAYLORD        SUNNY     42  13  30 NE7       29.96S
GRAYLING       SUNNY     44  17  34 E7        29.96F
HARBOR SPRINGS SUNNY     41  17  38 E7        30.00S
HOUGHTON LAKE  MOSUNNY   44  18  35 E9        29.96S
MANISTEE       CLOUDY    43  19  39 E10       29.93F
OSCODA         SUNNY     42  25  50 E8        30.00S
PELLSTON       SUNNY     43  23  45 NE8       30.00F
ROGERS CITY    SUNNY     38  29  71 NE5       30.03S WCI  34
TRAVERSE CITY  PTSUNNY   43  23  45 N9        29.96F
$$
MIZ007>008-015-251600-
EASTERN UPPER MICHIGAN

CITY           SKY/WX    TMP DP  RH WIND       PRES   REMARKS
KINROSS        SUNNY     43  19  39 NE8       30.01S
MACKINAC ISLAN SUNNY     37  26  63 E3        30.02R
NEWBERRY       SUNNY     41  25  52 NE7       30.00S
S. S. MARIE    SUNNY     45  19  35 NE3       30.01S
MUNISING         N/A     36  28  73 NE9       30.03S WCI  29
$$
MIZ004>006-011>014-085-251600-
CENTRAL UPPER MICHIGAN

CITY           SKY/WX    TMP DP  RH WIND       PRES   REMARKS
MANISTIQUE     SUNNY     42  25  50 CALM      30.00S
ESCANABA       CLOUDY    39  18  41 E5        30.00F
MENOMINEE      MOSUNNY   39  25  56 NE16      29.98S WCI  30
SAWYER-GWINN     N/A     37  18  44 NE12      29.99S WCI  30
$$
MIZ001>003-009>011-084-251600-
WESTERN UPPER MICHIGAN

CITY           SKY/WX    TMP DP  RH WIND       PRES   REMARKS
IRON MOUNTAIN  CLOUDY    42  20  41 CALM      29.97F
HOUGHTON       SUNNY     39  19  44 E13       30.01F WCI  31
COPPER HARBOR    N/A     37  29  72 E8        30.04F WCI  31
IRONWOOD       SUNNY     46  23  39 NE9       29.93S
$$

ABBREVIATIONS USED IN REMARKS
   TC - TEMPERATURE IN CELSIUS
  WCI - WIND CHILL INDEX
   HX - HEAT INDEX
  VSB - VISIBILITY




USA.gov is the U.S. government's official web portal to all federal, state and local government web resources and services.